| time (UTC) | temp F | wind direction | speed knots | gust knots | rain 1hr in | rain 24hr in | rain mn in | humidity % | barometer mb |
| 20260507093017 | 35 | 90 | 1.7 | 2.6 | 0.00 | 0.00 | 0.00 | 76 | 1013.5 |
| 20260507090016 | 36 | 0.0 | 1.7 | 0.00 | 0.00 | 0.00 | 74 | 1013.7 | |
| 20260507083016 | 37 | 90 | 0.9 | 3.5 | 0.00 | 0.00 | 0.00 | 71 | 1013.6 |
| 20260507080016 | 38 | 0.0 | 0.9 | 0.00 | 0.00 | 0.00 | 70 | 1014.0 | |
| 20260507073016 | 39 | 90 | 1.7 | 3.5 | 0.00 | 0.00 | 0.00 | 72 | 1014.1 |
| 20260507070016 | 40 | 0.0 | 0.0 | 0.00 | 0.00 | 0.00 | 67 | 1014.4 | |
| 20260507063016 | 40 | 0.0 | 0.9 | 0.00 | 0.00 | 0.00 | 65 | 1014.8 | |
| 20260507060015 | 40 | 0.0 | 0.0 | 0.00 | 0.00 | 0.00 | 66 | 1015.1 | |
| 20260507053015 | 40 | 0.0 | 0.0 | 0.00 | 0.00 | 0.00 | 64 | 1015.1 | |
| 20260507050038 | 40 | 0.0 | 1.7 | 0.00 | 0.00 | 0.00 | 63 | 1015.0 | |
| 20260507043037 | 39 | 68 | 0.9 | 2.6 | 0.00 | 0.00 | 0.00 | 63 | 1015.0 |
| 20260507040016 | 39 | 0.0 | 0.0 | 0.00 | 0.00 | 0.00 | 61 | 1015.2 | |
| 20260507033017 | 39 | 0.0 | 2.6 | 0.00 | 0.00 | 0.00 | 58 | 1015.2 | |
| 20260507030017 | 40 | 68 | 0.9 | 3.5 | 0.00 | 0.00 | 0.00 | 58 | 1015.5 |
| 20260507023016 | 41 | 45 | 2.6 | 3.5 | 0.00 | 0.00 | 0.00 | 57 | 1015.3 |
| 20260507020017 | 42 | 45 | 3.5 | 6.1 | 0.00 | 0.00 | 0.00 | 54 | 1015.4 |
| 20260507013017 | 45 | 23 | 4.3 | 7.8 | 0.00 | 0.00 | 0.00 | 50 | 1015.5 |
| 20260507010016 | 48 | 23 | 7.0 | 10.4 | 0.00 | 0.00 | 0.00 | 46 | 1015.5 |
| 20260507003016 | 49 | 338 | 9.6 | 13.0 | 0.00 | 0.00 | 0.00 | 44 | 1015.5 |
| 20260507000017 | 50 | 315 | 11.3 | 19.1 | 0.00 | 0.00 | 0.00 | 43 | 1015.8 |
| 20260506233016 | 50 | 338 | 9.6 | 16.5 | 0.00 | 0.00 | 0.00 | 44 | 1015.9 |
| 20260506230037 | 49 | 0 | 9.6 | 17.4 | 0.00 | 0.00 | 0.00 | 45 | 1016.2 |
| 20260506223036 | 49 | 315 | 12.2 | 20.9 | 0.00 | 0.00 | 0.00 | 44 | 1016.4 |
| 20260506220016 | 49 | 315 | 10.4 | 22.6 | 0.00 | 0.00 | 0.00 | 46 | 1016.4 |
| 20260506213015 | 49 | 315 | 11.3 | 20.0 | 0.00 | 0.00 | 0.00 | 46 | 1016.6 |
| 20260506210018 | 48 | 315 | 10.4 | 20.0 | 0.00 | 0.00 | 0.00 | 46 | 1017.1 |
| 20260506203018 | 48 | 315 | 9.6 | 20.0 | 0.00 | 0.00 | 0.00 | 46 | 1017.2 |
| 20260506200017 | 47 | 315 | 9.6 | 20.0 | 0.00 | 0.00 | 0.00 | 48 | 1017.3 |
| 20260506193017 | 46 | 315 | 10.4 | 17.4 | 0.00 | 0.00 | 0.00 | 50 | 1017.6 |
| 20260506190019 | 46 | 315 | 11.3 | 20.0 | 0.00 | 0.00 | 0.00 | 51 | 1017.6 |
| 20260506183058 | 46 | 315 | 11.3 | 20.0 | 0.00 | 0.00 | 0.00 | 51 | 1017.8 |
| 20260506180018 | 44 | 315 | 8.7 | 16.5 | 0.00 | 0.00 | 0.00 | 52 | 1017.9 |
| 20260506173018 | 44 | 315 | 13.0 | 19.1 | 0.00 | 0.00 | 0.00 | 52 | 1017.9 |
| 20260506170018 | 44 | 315 | 12.2 | 19.1 | 0.00 | 0.00 | 0.00 | 54 | 1018.1 |
| 20260506163017 | 43 | 315 | 11.3 | 20.9 | 0.00 | 0.00 | 0.00 | 56 | 1018.1 |
| 20260506160058 | 42 | 315 | 8.7 | 16.5 | 0.00 | 0.00 | 0.00 | 60 | 1018.0 |
| 20260506153017 | 41 | 315 | 6.1 | 11.3 | 0.00 | 0.00 | 0.00 | 62 | 1017.9 |
| 20260506150017 | 40 | 338 | 6.1 | 10.4 | 0.00 | 0.00 | 0.00 | 62 | 1018.0 |
| 20260506143017 | 40 | 338 | 7.0 | 11.3 | 0.00 | 0.00 | 0.00 | 63 | 1017.8 |
| 20260506140018 | 40 | 315 | 8.7 | 12.2 | 0.00 | 0.00 | 0.00 | 65 | 1017.7 |
| 20260506133017 | 39 | 315 | 8.7 | 12.2 | 0.00 | 0.00 | 0.00 | 68 | 1017.7 |
| 20260506130016 | 38 | 293 | 6.1 | 9.6 | 0.00 | 0.00 | 0.00 | 70 | 1017.2 |
| 20260506123057 | 37 | 293 | 4.3 | 9.6 | 0.00 | 0.00 | 0.00 | 71 | 1017.0 |
| 20260506120037 | 36 | 293 | 1.7 | 6.1 | 0.00 | 0.00 | 0.00 | 75 | 1016.6 |
| 20260506113017 | 34 | 293 | 0.9 | 2.6 | 0.00 | 0.00 | 0.00 | 75 | 1016.1 |
| 20260506110016 | 33 | 293 | 0.9 | 2.6 | 0.00 | 0.00 | 0.00 | 74 | 1015.5 |
| 20260506103057 | 34 | 293 | 0.9 | 3.5 | 0.00 | 0.00 | 0.00 | 73 | 1015.6 |
| 20260506100016 | 34 | 293 | 1.7 | 4.3 | 0.00 | 0.00 | 0.00 | 72 | 1015.9 |